TimeMDT,TemperatureF,Dew PointF,Humidity,Sea Level PressureIn,VisibilityMPH,Wind Direction,Wind SpeedMPH,Gust SpeedMPH,PrecipitationIn,Events,Conditions,WindDirDegrees,DateUTC
12:02 AM,33.8,33.8,100,30.10,0.5,Calm,Calm,-,N/A,Fog,Fog,0,2012-11-03 06:02:00
12:10 AM,32.0,32.0,100,30.09,0.2,Calm,Calm,-,N/A,Fog,Fog,0,2012-11-03 06:10:00
12:29 AM,33.8,32.0,93,30.09,0.5,Calm,Calm,-,N/A,Fog,Fog,0,2012-11-03 06:29:00
12:55 AM,32.0,32.0,100,30.14,0.5,Calm,Calm,-,N/A,Fog,Fog,0,2012-11-03 06:55:00
1:14 AM,33.8,32.0,93,30.10,0.5,Calm,Calm,-,N/A,Fog,Fog,0,2012-11-03 07:14:00
1:39 AM,33.8,33.8,100,30.10,0.2,Calm,Calm,-,N/A,Fog,Fog,0,2012-11-03 07:39:00
1:42 AM,33.8,33.8,100,30.10,0.5,Calm,Calm,-,N/A,Fog,Fog,0,2012-11-03 07:42:00
1:55 AM,34.0,34.0,100,30.14,0.2,Calm,Calm,-,N/A,Fog,Fog,0,2012-11-03 07:55:00
2:16 AM,33.8,33.8,100,30.10,0.2,Calm,Calm,-,N/A,Fog,Fog,0,2012-11-03 08:16:00
2:33 AM,33.8,32.0,93,30.10,0.5,NNE,3.5,-,N/A,Fog,Fog,30,2012-11-03 08:33:00
2:43 AM,33.8,33.8,100,30.10,0.5,Calm,Calm,-,N/A,Fog,Fog,0,2012-11-03 08:43:00
2:53 AM,33.8,33.8,100,30.10,0.2,Calm,Calm,-,N/A,Fog,Fog,0,2012-11-03 08:53:00
2:55 AM,33.1,33.1,100,30.15,0.2,Calm,Calm,-,N/A,Fog,Fog,0,2012-11-03 08:55:00
3:32 AM,32.0,32.0,100,30.09,1.0,Calm,Calm,-,N/A,,Mist,0,2012-11-03 09:32:00
3:36 AM,32.0,32.0,100,30.09,2.0,Calm,Calm,-,N/A,,Mostly Cloudy,0,2012-11-03 09:36:00
3:48 AM,32.0,32.0,100,30.10,3.0,Calm,Calm,-,N/A,,Mostly Cloudy,0,2012-11-03 09:48:00
3:52 AM,30.2,30.2,100,30.10,1.8,Calm,Calm,-,N/A,,Mostly Cloudy,0,2012-11-03 09:52:00
3:55 AM,30.9,30.9,100,30.15,1.2,Calm,Calm,-,N/A,,Mostly Cloudy,0,2012-11-03 09:55:00
4:06 AM,30.2,30.2,100,30.10,0.8,Calm,Calm,-,N/A,,Overcast,0,2012-11-03 10:06:00
4:15 AM,32.0,30.2,93,30.10,0.8,Calm,Calm,-,N/A,,Mist,0,2012-11-03 10:15:00
4:55 AM,32.0,32.0,100,30.14,0.8,Calm,Calm,-,N/A,,Mist,0,2012-11-03 10:55:00
5:06 AM,32.0,32.0,100,30.09,0.5,Calm,Calm,-,N/A,Fog,Fog,0,2012-11-03 11:06:00
5:22 AM,32.0,32.0,100,30.09,0.2,Calm,Calm,-,N/A,Fog,Fog,0,2012-11-03 11:22:00
5:45 AM,30.2,30.2,100,30.09,0.5,Calm,Calm,-,N/A,Fog,Light Freezing Fog,0,2012-11-03 11:45:00
5:55 AM,30.9,30.0,96,30.14,0.5,Calm,Calm,-,N/A,Fog,Light Freezing Fog,0,2012-11-03 11:55:00
6:41 AM,30.2,30.2,100,30.09,0.5,Calm,Calm,-,N/A,Fog,Light Freezing Fog,0,2012-11-03 12:41:00
6:55 AM,30.9,30.9,100,30.15,0.2,Calm,Calm,-,N/A,Fog,Light Freezing Fog,0,2012-11-03 12:55:00
7:14 AM,30.2,30.2,100,30.09,0.2,Calm,Calm,-,N/A,Fog,Light Freezing Fog,0,2012-11-03 13:14:00
7:33 AM,32.0,30.2,93,30.09,0.5,Calm,Calm,-,N/A,Fog,Fog,0,2012-11-03 13:33:00
7:41 AM,32.0,32.0,100,30.10,1.0,Calm,Calm,-,N/A,,Overcast,0,2012-11-03 13:41:00
7:46 AM,32.0,32.0,100,30.10,2.0,Calm,Calm,-,N/A,,Overcast,0,2012-11-03 13:46:00
7:55 AM,32.0,32.0,100,30.16,9.0,Calm,Calm,-,N/A,,Overcast,0,2012-11-03 13:55:00
8:55 AM,33.1,32.0,96,30.17,10.0,Calm,Calm,-,N/A,,Overcast,0,2012-11-03 14:55:00
9:12 AM,33.8,33.8,100,30.12,10.0,Calm,Calm,-,N/A,,Overcast,0,2012-11-03 15:12:00
9:55 AM,35.1,35.1,100,30.18,10.0,Calm,Calm,-,N/A,,Overcast,0,2012-11-03 15:55:00
10:11 AM,35.6,35.6,100,30.12,10.0,Calm,Calm,-,N/A,,Overcast,0,2012-11-03 16:11:00
10:35 AM,35.6,35.6,100,30.11,10.0,Calm,Calm,-,N/A,,Overcast,0,2012-11-03 16:35:00
10:55 AM,37.9,37.0,97,30.17,10.0,Calm,Calm,-,N/A,,Overcast,0,2012-11-03 16:55:00
11:55 AM,41.0,39.0,93,30.17,10.0,Calm,Calm,-,N/A,,Overcast,0,2012-11-03 17:55:00
12:55 PM,43.0,39.9,89,30.15,10.0,Calm,Calm,-,N/A,,Overcast,0,2012-11-03 18:55:00
1:10 PM,42.8,39.2,87,30.09,10.0,Calm,Calm,-,N/A,,Overcast,0,2012-11-03 19:10:00
1:55 PM,45.0,39.9,82,30.12,10.0,Calm,Calm,-,N/A,,Overcast,0,2012-11-03 19:55:00
2:55 PM,45.0,41.0,86,30.12,10.0,Calm,Calm,-,N/A,,Overcast,0,2012-11-03 20:55:00
3:55 PM,44.1,42.1,93,30.13,9.0,Calm,Calm,-,0.01,Rain,Light Rain,0,2012-11-03 21:55:00
4:55 PM,44.1,42.1,93,30.14,7.0,South,4.6,-,0.04,Rain,Light Rain,180,2012-11-03 22:55:00
5:55 PM,45.0,43.0,93,30.14,10.0,South,6.9,-,0.03,Rain,Light Rain,180,2012-11-03 23:55:00
6:29 PM,44.6,42.8,93,30.09,10.0,Variable,4.6,-,0.01,Rain,Light Rain,0,2012-11-04 00:29:00
6:55 PM,45.0,43.0,93,30.15,10.0,South,5.8,-,0.01,Rain,Light Rain,190,2012-11-04 00:55:00
7:55 PM,46.0,43.0,89,30.16,10.0,SSW,4.6,-,0.00,,Overcast,200,2012-11-04 01:55:00
8:55 PM,46.0,43.0,89,30.15,10.0,South,6.9,-,N/A,,Overcast,180,2012-11-04 02:55:00
9:55 PM,44.1,43.0,96,30.15,10.0,SW,4.6,-,0.00,,Overcast,230,2012-11-04 03:55:00
10:02 PM,44.6,42.8,93,30.10,10.0,SW,5.8,-,N/A,,Overcast,230,2012-11-04 04:02:00
10:55 PM,45.0,43.0,93,30.13,10.0,SSW,6.9,-,N/A,,Overcast,200,2012-11-04 04:55:00
11:55 PM,44.1,42.1,93,30.14,10.0,SW,3.5,-,N/A,,Overcast,230,2012-11-04 05:55:00